Погода Казалы

Погода Казалы : погода сейчас, прогноз погоды и архив. Всё, что Вы хотите узнать о погоде Казалы!

Хотите узнать прогноз погоды Казалы? Тогда Вам сюда: Погода Казалы

Поиск расширенной информации на нашем сайте:

Другие новости

Новости СМИ2

Главная страница сайта

Новости сайта

03.07.2017

Напоминаем, что на нашем специализированном сайте Метеоцентр.Азия вы можете получить высокодетализированные автоматические прогнозы погоды по пунктам России, СНГ и мира в авиационном формате (включающие направление и скорость ветра, видимость, явления погоды, количество и форму облачности, нижнюю и верхнюю границу облачности).


Погода Казалы - сегодня

Время (UTC), дата Ветер
(°,м/с) 
Видим.   Явления Облачность Т
(°С)
Тd
(°С)
f(%) Тe
(°С)
Pmin
(гПа)
dP
(гПа)
Po
(мм)
O2
(г/м3)
Тmin Tmax R s Состояние
почвы
15 16.04.18 тихо ()   20000 м    8/0 средняя 
[Ac As]
+13.7 -3.8 29 +14  1019.8  -0.2  759  292    +16.1       
18 16.04.18 тихо ()   20000 м    10/0 средняя 
[Ac As]
+11.2 +0.6 48 +11  1020.3  0.4  759  294    +16.1       
21 16.04.18 тихо ()   20000 м    10/0 средняя 
[Ac As]
+8.4 -1.2 51 +8  1020.2  -0.1  759  297           
00 17.04.18 тихо ()   20000 м    3/0 средняя 
[Ac trans]
+4.8 -1.5 64 +5  1019.6  -0.8  758  300           
03 17.04.18 270 (З) 20000 м    4/0 средняя 
[Ac trans]
+6.4 -1.7 56 +7  1019.9  0.3  759  299           
06 17.04.18 290 (З) 20000 м    8/5 600 м кучево-дожд., средняя 
[Cb calv|Ac trans]
+14.3 -2.5 31 +16  1020.1  0.5  759  291  +2.4         
09 17.04.18 290 (З) 20000 м    5/5 600 м кучево-дожд. 
[Cb calv]
+15.3 -5.7 23 +16  1019.2  -0.9  758  290           
12 17.04.18 320 (СЗ) 20000 м    5/5 600 м кучево-дожд. 
[Cb calv]
+15.1 -4.4 26 +16  1019.4  0.2  758  290           
15 17.04.18 290 (З) 20000 м    3/3 1000 м 
[Cu hum]
+13.4 -3 32 +15  1019.6  0.2  759  292    +16.2       
18 17.04.18 250 (З) 20000 м    ясно 
+9.5 -0.2 51 +11  1020.6  0.9  759  296    +16.2       
21 17.04.18 270 (З) 20000 м    ясно 
+7.4 -0.2 58 +8  1021.1  0.5  760  298           
00 18.04.18 тихо ()   20000 м    ясно 
+4.8 -0.8 67 +5  1022.1  0.8  760  301           
03 18.04.18 270 (З) 20000 м    5/0 средняя 
[Ac und]
+7 +1.5 68 +8  1022.7  0.8  761  299           
06 18.04.18 290 (З) 20000 м    8/0 средняя 
[Ac und]
+14.6 +1.9 42 +16  1023.9  1.3  762  291  +4.1         
09 18.04.18 290 (З) 20000 м    5/0 средняя 
[Ac trans]
+18 -3.8 22 +19  1022.6  -1.1  761  288           
12 18.04.18 250 (З) 20000 м    ясно 
+18.4 -6.4 18 +19  1022.1  -0.5  761  288           
15 18.04.18 250 (З) 20000 м    8/0 верхняя 
[Cs]
+14.7 +0.4 38 +16  1022.4  0.1  761  291    +19.3       
18 18.04.18 250 (З) 20000 м    3/0 верхняя 
[Ci fib]
+11.1 -1.7 41 +11  1022.7  0.2  761  295    +19.3       
21 18.04.18 250 (З) 20000 м    4/0 средняя 
[Ac trans]
+8.3 +0.6 58 +9  1021.8  -0.9  760  297           
00 19.04.18 250 (З) 20000 м    3/0 средняя 
[Ac trans]
+8.1 +2.1 66 +9  1021.2  -0.6  760  297           
03 19.04.18 250 (З) 20000 м    4/0 средняя 
[Ac trans]
+9.6 +2.9 63 +11  1021.1  -0.1  760  295           
06 19.04.18 270 (З) 20000 м    5/0 средняя 
[Ac trans]
+17 +2.1 37 +18  1020.8  760  288  +6.5         
09 19.04.18 230 (ЮЗ) 20000 м    8/8 600 м кучево-дожд. 
[Cb calv]
+19.7 -5 18 +21  1019.6  -1.2  759  286           
12 19.04.18 250 (З) 20000 м    10/10 600 м кучево-дожд. 
[Cb calv]
+19.5 -6.7 16 +21  1018.8  -0.8  758  286           
15 19.04.18 тихо ()   20000 м    9/0 верхняя 
[Cs]
+15.8 -0.2 34 +16  1018.9  -0.1  758  289    +19.9       
Время (UTC), дата Ветер
(°,м/с) 
Видим.   Явления Облачность Т
(°С)
Тd
(°С)
f(%) Тe
(°С)
Pmin
(гПа)
dP
(гПа)
Po
(мм)
O2
(г/м3)
Тmin Tmax R s Состояние
почвы

Для получения пояснительной информации подведите курсор к названию столбца.

ПОГОДА Казалы - архив

Всё, что Вы хотите узнать о погоде Казалы - удобно и подробно!

Выберите нужную дату (начиная с 1 января 2015* года) и нажмите кнопку "Найти".
Будут отображены архивные сводки погоды по пункту Казалы, начиная с указанной даты.


Отображать данные в формате CSV (для использования в таблицах Excel)


Внимание! Наш архив погоды предназначен исключительно для личного некоммерческого использования в познавательных целях. Если Вам необходимы официальные справки о состоянии погоды (для производственных, юридических, коммерческих и т.п. целей), обращайтесь в органы Росгидромета.

*Примечание: данная дата относится к архиву по метеостанциям СССР (Россия, СНГ, Балтия).
Архив по метеостанциям Зарубежной Европы и Азии (кроме Китая) хранится 10 дней, по другим регионам земного шара (Китай, Африка, Америка, Австралия, Океания) - 1 день.

Казалы - район местоположения метеостанции


Название, широта, долгота, высота метеостанции:
Казалы (Казалинск) 45.8°ш. 62.1°д. 68 м над ур. моря [Казахстан]

Дополнительная информация

В oтличие oт бoльшинства пoгoдных сайтoв мы публикуем пoдрoбную метеoинфoрмацию в детальнoм прoфессиoнальнoм фoрмате.

Характеристики температуры и влажнoсти вoздуха измеряются на высoте 2 м в тени вдали oт зданий и деревьев.
Скoрoсть ветра измеряется на высoте 10 м (на урoвне рoста челoвека скoрoсть ветра ниже в 1.5-2 раза). Если метеoстанция нахoдится в гoрoде или в лесу, тo скoрoсть ветра занижена на 2-4 м/с пo сравнению с oткрытым местoм. Скoрoсть ветра над акватoриями крупных рек и oзёр, а также на вершинах хoлмoв на 2-5 м/с выше, чем в oбычных услoвиях.
Атмoсфернoе давление в разных тoчках местнoсти мoжет значительнo oтличаться oт давления на метеoстанции, в зависимoсти oт услoвий рельефа (при пoдъёме на 10 м давление пoнижается примернo на 1 мм рт.ст.).